Tracking 22441 objects as of 28-Feb-2021
HD Live streaming from Space Station
objects crossing your sky now

FREGAT DEB

Track FREGAT DEB now!
10-day predictions


NORAD ID: 45901
Int'l Code: 2011-037DW
Perigee: 1,027.1 km
Apogee: 4,704.5 km
Inclination: 51.7 °
Period: 147.2 minutes
Semi major axis: 9236 km
RCS: Unknown
Launch date: July 18, 2011
Source: Commonwealth of Independent States (former USSR) (CIS)
Launch site: TYURATAM MISSILE AND SPACE COMPLEX (TTMTR)

Note: This is SATELLITE DEBRIS
aabbcc
Your satellite tracking list
Your tracking list is empty




NASA's NSSDC Master Catalog

Two Line Element Set (TLE):
1 45901U 11037DW  20251.40133891 -.00101763 +00000+0 -90137+0 0  9998
2 45901  51.7097 228.0843 1990611 128.1755 251.5689  9.77963844005854
Source of the keplerian elements: AFSPC